Location: Bonac
(42.8765°N, 0.9753°E)
Time: 14:56:51
(UTC+00:00)

ATLAS 5 CENTAUR R/B - Visible Passes

Search period start: 19 April 2026 00:00
Search period end: 29 April 2026 00:00
Orbit: 362 x 1069 km, 63.3° (Epoch: 19 April)

Date Brightness Start Highest point End Pass type
(mag) Time Alt. Az. Time Alt. Az. Time Alt. Az.
19 Apr 3.8 22:06:30 10° N 22:08:40 18° NNE 22:08:40 18° NNE visible
19 Apr 4.5 23:47:31 10° NW 23:47:48 12° NW 23:47:48 12° NW visible
20 Apr 4.1 21:14:17 10° NNE 21:15:28 11° NE 21:16:26 10° NE visible
20 Apr 3.8 22:53:56 10° NNW 22:55:34 23° NNW 22:55:34 23° NNW visible
21 Apr 3.3 22:00:34 10° NNW 22:03:18 27° NNE 22:03:18 27° NNE visible
21 Apr 4.5 23:42:13 10° NW 23:42:26 11° NW 23:42:26 11° NW visible
22 Apr 3.6 21:07:33 10° N 21:10:16 17° NE 21:11:02 16° NE visible
22 Apr 3.5 22:48:18 10° NW 22:50:09 27° NW 22:50:09 27° NW visible
23 Apr 2.6 21:54:39 10° NNW 21:57:53 41° NNE 21:57:53 41° NNE visible
24 Apr 3.1 21:01:17 10° NNW 21:04:46 25° NE 21:05:35 24° ENE visible
24 Apr 3.5 22:42:40 10° NW 22:44:43 27° WNW 22:44:43 27° WNW visible
25 Apr 3.8 20:08:19 10° N 20:10:33 14° NE 20:12:59 10° ENE visible
25 Apr 2.0 21:48:43 10° NNW 21:52:25 65° NNW 21:52:25 65° NNW visible
26 Apr 2.5 20:55:03 10° NNW 20:59:02 39° NE 21:00:07 34° E visible
26 Apr 3.6 22:37:05 10° WNW 22:39:14 23° W 22:39:14 23° W visible
27 Apr 3.3 20:01:39 10° N 20:04:51 21° NE 20:07:49 13° E visible
27 Apr 2.0 21:42:46 10° NW 21:46:56 62° WSW 21:46:56 62° WSW visible
28 Apr 1.8 20:48:48 10° NNW 20:53:04 64° NE 20:54:39 41° ESE visible
28 Apr 4.0 22:31:43 10° WNW 22:33:46 17° W 22:33:46 17° W visible
